Year,Month,Day,Hour,Minute,Value (Times are PST for windgust in km/hr)
2018,05,26,00,14,3.20
2018,05,26,00,15,1.60
2018,05,26,00,16,3.20
2018,05,26,00,17,3.20
2018,05,26,00,18,1.60
2018,05,26,00,19,1.60
2018,05,26,00,20,3.20
2018,05,26,00,21,3.20
2018,05,26,00,22,3.20
2018,05,26,00,23,3.20
2018,05,26,00,24,3.20
2018,05,26,00,25,1.60
2018,05,26,00,26,3.20
2018,05,26,00,27,4.80
2018,05,26,00,28,3.20
2018,05,26,00,29,3.20
2018,05,26,00,30,3.20
2018,05,26,00,31,1.60
2018,05,26,00,32,1.60
2018,05,26,00,33,3.20
2018,05,26,00,34,1.60
2018,05,26,00,35,1.60
2018,05,26,01,42,1.60
2018,05,26,01,43,1.60
2018,05,26,01,44,1.60
2018,05,26,01,45,1.60
2018,05,26,01,46,3.20
2018,05,26,01,47,3.20
2018,05,26,01,48,1.60
2018,05,26,01,49,1.60
2018,05,26,01,50,1.60
2018,05,26,01,51,1.60
2018,05,26,01,52,3.20
2018,05,26,01,53,1.60
2018,05,26,01,54,3.20
2018,05,26,01,55,1.60
2018,05,26,01,57,1.60
2018,05,26,01,58,1.60
2018,05,26,01,59,1.60
2018,05,26,02,00,3.20
2018,05,26,02,01,3.20
2018,05,26,02,02,1.60
2018,05,26,02,03,1.60
2018,05,26,02,04,1.60
2018,05,26,02,05,1.60
2018,05,26,02,06,3.20
2018,05,26,02,07,1.60
2018,05,26,02,08,3.20
2018,05,26,02,09,3.20
2018,05,26,02,10,3.20
2018,05,26,02,11,1.60
2018,05,26,02,12,1.60
2018,05,26,02,13,1.60
2018,05,26,02,14,3.20
2018,05,26,02,15,1.60
2018,05,26,02,16,1.60
2018,05,26,02,17,1.60
2018,05,26,02,18,1.60
2018,05,26,02,19,1.60
2018,05,26,02,20,1.60
2018,05,26,02,21,1.60
2018,05,26,02,23,1.60
2018,05,26,02,37,1.60
2018,05,26,03,02,1.60
2018,05,26,03,15,1.60
2018,05,26,03,19,1.60
2018,05,26,03,20,1.60
2018,05,26,03,21,1.60
2018,05,26,03,22,1.60
2018,05,26,03,25,1.60
2018,05,26,03,28,1.60
2018,05,26,03,29,3.20
2018,05,26,03,30,1.60
2018,05,26,07,55,1.60
2018,05,26,07,56,3.20
2018,05,26,07,57,4.80
2018,05,26,07,58,4.80
2018,05,26,07,59,3.20
2018,05,26,08,00,6.40
2018,05,26,08,01,1.60
2018,05,26,08,02,4.80
2018,05,26,08,03,1.60
2018,05,26,08,04,1.60
2018,05,26,08,07,3.20
2018,05,26,08,08,4.80
2018,05,26,08,09,4.80
2018,05,26,08,10,4.80
2018,05,26,08,11,4.80
2018,05,26,08,12,4.80
2018,05,26,08,13,4.80
2018,05,26,08,14,4.80
2018,05,26,08,15,4.80
2018,05,26,08,16,3.20
2018,05,26,08,17,3.20
2018,05,26,08,18,1.60
2018,05,26,08,19,1.60
2018,05,26,08,20,1.60
2018,05,26,08,31,1.60
2018,05,26,08,33,1.60
2018,05,26,08,35,1.60
2018,05,26,08,58,1.60
2018,05,26,09,00,1.60
2018,05,26,09,01,1.60
2018,05,26,09,02,1.60
2018,05,26,09,03,1.60
2018,05,26,09,06,1.60
2018,05,26,09,07,1.60
2018,05,26,09,09,1.60
2018,05,26,09,10,1.60
2018,05,26,09,11,1.60
2018,05,26,09,12,1.60
2018,05,26,09,13,1.60
2018,05,26,09,15,1.60
2018,05,26,09,16,1.60
2018,05,26,09,17,1.60
2018,05,26,09,18,1.60
2018,05,26,09,19,1.60
2018,05,26,09,20,1.60
2018,05,26,09,21,1.60
2018,05,26,09,22,1.60
2018,05,26,09,23,1.60
2018,05,26,09,25,1.60
2018,05,26,09,26,1.60
2018,05,26,09,27,1.60
2018,05,26,09,28,1.60
2018,05,26,09,29,1.60
2018,05,26,09,30,1.60
2018,05,26,09,31,1.60
2018,05,26,09,32,1.60
2018,05,26,09,34,1.60
2018,05,26,09,35,1.60
2018,05,26,09,36,1.60
2018,05,26,09,38,1.60
2018,05,26,09,39,1.60
2018,05,26,09,40,1.60
2018,05,26,09,41,1.60
2018,05,26,09,42,1.60
2018,05,26,09,43,1.60
2018,05,26,09,45,1.60
2018,05,26,09,46,1.60
2018,05,26,09,47,1.60
2018,05,26,09,48,1.60
2018,05,26,09,49,1.60
2018,05,26,09,50,1.60
2018,05,26,09,51,1.60
2018,05,26,09,52,1.60
2018,05,26,09,53,1.60
2018,05,26,09,54,1.60
2018,05,26,09,55,1.60
2018,05,26,09,56,1.60
2018,05,26,09,57,1.60
2018,05,26,09,58,1.60
2018,05,26,09,59,1.60
2018,05,26,10,02,1.60
2018,05,26,10,03,1.60
2018,05,26,10,04,1.60
2018,05,26,10,05,1.60
2018,05,26,10,06,1.60
2018,05,26,10,07,1.60
2018,05,26,10,08,1.60
2018,05,26,10,09,3.20
2018,05,26,10,10,11.30
2018,05,26,10,11,11.30
2018,05,26,10,12,11.30
2018,05,26,10,13,9.60
2018,05,26,10,14,9.60
2018,05,26,10,15,11.30
2018,05,26,10,16,6.40
2018,05,26,10,17,9.60
2018,05,26,10,18,11.30
2018,05,26,10,19,12.90
2018,05,26,10,20,11.30
2018,05,26,10,21,9.60
2018,05,26,10,22,12.90
2018,05,26,10,23,11.30
2018,05,26,10,24,11.30
2018,05,26,10,25,8.10
2018,05,26,10,26,9.60
2018,05,26,10,27,9.60
2018,05,26,10,28,11.30
2018,05,26,10,29,9.60
2018,05,26,10,30,11.30
2018,05,26,10,31,11.30
2018,05,26,10,32,11.30
2018,05,26,10,33,11.30
2018,05,26,10,34,9.60
2018,05,26,10,35,9.60
2018,05,26,10,36,8.10
2018,05,26,10,37,9.60
2018,05,26,10,38,9.60
2018,05,26,10,39,9.60
2018,05,26,10,40,9.60
2018,05,26,10,41,9.60
2018,05,26,10,42,9.60
2018,05,26,10,43,9.60
2018,05,26,10,44,9.60
2018,05,26,10,45,11.30
2018,05,26,10,46,9.60
2018,05,26,10,47,11.30
2018,05,26,10,48,11.30
2018,05,26,10,49,11.30
2018,05,26,10,50,11.30
2018,05,26,10,51,11.30
2018,05,26,10,52,11.30
2018,05,26,10,53,11.30
2018,05,26,10,54,12.90
2018,05,26,10,55,9.60
2018,05,26,10,56,11.30
2018,05,26,10,57,12.90
2018,05,26,10,58,11.30
2018,05,26,10,59,12.90
2018,05,26,11,00,11.30
2018,05,26,11,01,11.30
2018,05,26,11,02,11.30
2018,05,26,11,03,11.30
2018,05,26,11,04,11.30
2018,05,26,11,05,11.30
2018,05,26,11,06,11.30
2018,05,26,11,07,9.60
2018,05,26,11,08,11.30
2018,05,26,11,09,11.30
2018,05,26,11,10,11.30
2018,05,26,11,11,11.30
2018,05,26,11,12,11.30
2018,05,26,11,13,9.60
2018,05,26,11,14,9.60
2018,05,26,11,15,9.60
2018,05,26,11,16,9.60
2018,05,26,11,17,11.30
2018,05,26,11,18,9.60
2018,05,26,11,19,9.60
2018,05,26,11,20,9.60
2018,05,26,11,21,11.30
2018,05,26,11,22,9.60
2018,05,26,11,23,9.60
2018,05,26,11,24,9.60
2018,05,26,11,25,11.30
2018,05,26,11,26,11.30
2018,05,26,11,27,12.90
2018,05,26,11,28,12.90
2018,05,26,11,29,12.90
2018,05,26,11,30,11.30
2018,05,26,11,31,12.90
2018,05,26,11,32,11.30
2018,05,26,11,33,12.90
2018,05,26,11,34,12.90
2018,05,26,11,35,12.90
2018,05,26,11,36,12.90
2018,05,26,11,37,12.90
2018,05,26,11,38,14.50
2018,05,26,11,39,12.90
2018,05,26,11,40,14.50
2018,05,26,11,41,12.90
2018,05,26,11,42,14.50
2018,05,26,11,43,16.10
2018,05,26,11,44,12.90
2018,05,26,11,45,14.50
2018,05,26,11,46,12.90
2018,05,26,11,47,12.90
2018,05,26,11,48,12.90
2018,05,26,11,49,11.30
2018,05,26,11,50,12.90
2018,05,26,11,51,12.90
2018,05,26,11,52,14.50
2018,05,26,11,53,11.30
2018,05,26,11,54,16.10
2018,05,26,11,55,12.90
2018,05,26,11,56,12.90
2018,05,26,11,57,14.50
2018,05,26,11,58,12.90
2018,05,26,11,59,14.50
2018,05,26,12,00,14.50
2018,05,26,12,01,12.90
2018,05,26,12,02,11.30
2018,05,26,12,03,11.30
2018,05,26,12,04,11.30
2018,05,26,12,05,8.10
2018,05,26,12,06,9.60
2018,05,26,12,07,8.10
2018,05,26,12,08,9.60
2018,05,26,12,09,12.90
2018,05,26,12,10,12.90
2018,05,26,12,11,12.90
2018,05,26,12,12,12.90
2018,05,26,12,13,12.90
2018,05,26,12,14,12.90
2018,05,26,12,15,11.30
2018,05,26,12,16,9.60
2018,05,26,12,17,9.60
2018,05,26,12,18,9.60
2018,05,26,12,19,12.90
2018,05,26,12,20,11.30
2018,05,26,12,21,8.10
2018,05,26,12,22,9.60
2018,05,26,12,23,12.90
2018,05,26,12,24,9.60
2018,05,26,12,25,12.90
2018,05,26,12,26,14.50
2018,05,26,12,27,14.50
2018,05,26,12,28,14.50
2018,05,26,12,29,14.50
2018,05,26,12,30,12.90
2018,05,26,12,31,14.50
2018,05,26,12,32,12.90
2018,05,26,12,33,14.50
2018,05,26,12,34,14.50
2018,05,26,12,35,16.10
2018,05,26,12,36,17.70
2018,05,26,12,37,16.10
2018,05,26,12,38,14.50
2018,05,26,12,39,14.50
2018,05,26,12,40,12.90
2018,05,26,12,41,12.90
2018,05,26,12,42,14.50
2018,05,26,12,43,14.50
2018,05,26,12,44,14.50
2018,05,26,12,45,16.10
2018,05,26,12,46,16.10
2018,05,26,12,47,14.50
2018,05,26,12,48,12.90
2018,05,26,12,49,14.50
2018,05,26,12,50,14.50
2018,05,26,12,51,14.50
2018,05,26,12,52,16.10
2018,05,26,12,53,12.90
2018,05,26,12,54,16.10
2018,05,26,12,55,16.10
2018,05,26,12,56,16.10
2018,05,26,12,57,14.50
2018,05,26,12,58,17.70
2018,05,26,12,59,16.10
2018,05,26,13,00,14.50
2018,05,26,13,01,16.10
2018,05,26,13,02,12.90
2018,05,26,13,03,12.90
2018,05,26,13,04,14.50
2018,05,26,13,05,12.90
2018,05,26,13,06,14.50
2018,05,26,13,07,14.50
2018,05,26,13,08,16.10
2018,05,26,13,09,16.10
2018,05,26,13,10,17.70
2018,05,26,13,11,17.70
2018,05,26,13,12,16.10
2018,05,26,13,13,16.10
2018,05,26,13,14,16.10
2018,05,26,13,15,16.10
2018,05,26,13,16,16.10
2018,05,26,13,17,16.10
2018,05,26,13,18,16.10
2018,05,26,13,19,16.10
2018,05,26,13,20,16.10
2018,05,26,13,21,14.50
2018,05,26,13,22,20.90
2018,05,26,13,23,17.70
2018,05,26,13,24,16.10
2018,05,26,13,25,16.10
2018,05,26,13,26,16.10
2018,05,26,13,27,17.70
2018,05,26,13,28,17.70
2018,05,26,13,29,19.30
2018,05,26,13,30,16.10
2018,05,26,13,31,17.70
2018,05,26,13,32,20.90
2018,05,26,13,33,17.70
2018,05,26,13,34,19.30
2018,05,26,13,35,17.70
2018,05,26,13,36,17.70
2018,05,26,13,37,16.10
2018,05,26,13,38,17.70
2018,05,26,13,39,17.70
2018,05,26,13,40,17.70
2018,05,26,13,41,17.70
2018,05,26,13,42,17.70
2018,05,26,13,43,17.70
2018,05,26,13,44,19.30
2018,05,26,13,45,19.30
2018,05,26,13,46,16.10
2018,05,26,13,47,17.70
2018,05,26,13,48,17.70
2018,05,26,13,49,16.10
2018,05,26,13,50,17.70
2018,05,26,13,51,17.70
2018,05,26,13,52,17.70
2018,05,26,13,53,17.70
2018,05,26,13,54,17.70
2018,05,26,13,55,19.30
2018,05,26,13,56,16.10
2018,05,26,13,57,16.10
2018,05,26,13,58,17.70
2018,05,26,13,59,16.10
2018,05,26,14,00,19.30
2018,05,26,14,01,19.30
2018,05,26,14,02,19.30
2018,05,26,14,03,17.70
2018,05,26,14,04,19.30
2018,05,26,14,05,20.90
2018,05,26,14,06,19.30
2018,05,26,14,07,19.30
2018,05,26,14,08,16.10
2018,05,26,14,09,16.10
2018,05,26,14,10,19.30
2018,05,26,14,11,19.30
2018,05,26,14,12,20.90
2018,05,26,14,13,14.50
2018,05,26,14,14,17.70
2018,05,26,14,15,19.30
2018,05,26,14,16,20.90
2018,05,26,14,17,17.70
2018,05,26,14,18,19.30
2018,05,26,14,19,19.30
2018,05,26,14,20,17.70
2018,05,26,14,21,19.30
2018,05,26,14,22,17.70
2018,05,26,14,23,19.30
2018,05,26,14,24,20.90
2018,05,26,14,25,17.70
2018,05,26,14,26,17.70
2018,05,26,14,27,17.70
2018,05,26,14,28,20.90
2018,05,26,14,29,19.30
2018,05,26,14,30,17.70
2018,05,26,14,31,16.10
2018,05,26,14,32,19.30
2018,05,26,14,33,19.30
2018,05,26,14,34,19.30
2018,05,26,14,35,17.70
2018,05,26,14,36,20.90
2018,05,26,14,37,17.70
2018,05,26,14,38,16.10
2018,05,26,14,39,16.10
2018,05,26,14,40,17.70
2018,05,26,14,41,17.70
2018,05,26,14,42,16.10
2018,05,26,14,43,16.10
2018,05,26,14,44,16.10
2018,05,26,14,45,17.70
2018,05,26,14,46,17.70
2018,05,26,14,47,17.70
2018,05,26,14,48,16.10
2018,05,26,14,49,16.10
2018,05,26,14,50,17.70
2018,05,26,14,51,16.10
2018,05,26,14,52,16.10
2018,05,26,14,53,16.10
2018,05,26,14,54,14.50
2018,05,26,14,55,14.50
2018,05,26,14,56,12.90
2018,05,26,14,57,14.50
2018,05,26,14,58,16.10
2018,05,26,14,59,17.70
2018,05,26,15,00,14.50
2018,05,26,15,01,12.90
2018,05,26,15,02,14.50
2018,05,26,15,03,12.90
2018,05,26,15,04,14.50
2018,05,26,15,05,16.10
2018,05,26,15,06,16.10
2018,05,26,15,07,16.10
2018,05,26,15,08,16.10
2018,05,26,15,09,14.50
2018,05,26,15,10,17.70
2018,05,26,15,11,14.50
2018,05,26,15,12,14.50
2018,05,26,15,13,14.50
2018,05,26,15,14,14.50
2018,05,26,15,15,16.10
2018,05,26,15,16,14.50
2018,05,26,15,17,12.90
2018,05,26,15,18,12.90
2018,05,26,15,19,14.50
2018,05,26,15,20,16.10
2018,05,26,15,21,12.90
2018,05,26,15,22,14.50
2018,05,26,15,23,11.30
2018,05,26,15,24,11.30
2018,05,26,15,25,14.50
2018,05,26,15,26,14.50
2018,05,26,15,27,12.90
2018,05,26,15,28,16.10
2018,05,26,15,29,11.30
2018,05,26,15,30,11.30
2018,05,26,15,31,12.90
2018,05,26,15,32,12.90
2018,05,26,15,33,12.90
2018,05,26,15,34,14.50
2018,05,26,15,35,14.50
2018,05,26,15,36,12.90
2018,05,26,15,37,12.90
2018,05,26,15,38,14.50
2018,05,26,15,39,14.50
2018,05,26,15,40,12.90
2018,05,26,15,41,14.50
2018,05,26,15,42,14.50
2018,05,26,15,43,11.30
2018,05,26,15,44,16.10
2018,05,26,15,45,14.50
2018,05,26,15,46,12.90
2018,05,26,15,47,16.10
2018,05,26,15,48,14.50
2018,05,26,15,49,11.30
2018,05,26,15,50,11.30
2018,05,26,15,51,16.10
2018,05,26,15,52,12.90
2018,05,26,15,53,12.90
2018,05,26,15,54,11.30
2018,05,26,15,55,12.90
2018,05,26,15,56,12.90
2018,05,26,15,57,11.30
2018,05,26,15,58,12.90
2018,05,26,15,59,17.70
2018,05,26,16,00,14.50
2018,05,26,16,01,12.90
2018,05,26,16,02,14.50
2018,05,26,16,03,14.50
2018,05,26,16,04,14.50
2018,05,26,16,05,16.10
2018,05,26,16,06,14.50
2018,05,26,16,07,14.50
2018,05,26,16,08,14.50
2018,05,26,16,09,12.90
2018,05,26,16,10,14.50
2018,05,26,16,11,16.10
2018,05,26,16,12,14.50
2018,05,26,16,13,12.90
2018,05,26,16,14,14.50
2018,05,26,16,15,12.90
2018,05,26,16,16,11.30
2018,05,26,16,17,12.90
2018,05,26,16,18,12.90
2018,05,26,16,19,12.90
2018,05,26,16,20,14.50
2018,05,26,16,21,12.90
2018,05,26,16,22,16.10
2018,05,26,16,23,16.10
2018,05,26,16,24,16.10
2018,05,26,16,25,12.90
2018,05,26,16,26,14.50
2018,05,26,16,27,12.90
2018,05,26,16,28,12.90
2018,05,26,16,29,12.90
2018,05,26,16,30,12.90
2018,05,26,16,31,11.30
2018,05,26,16,32,14.50
2018,05,26,16,33,14.50
2018,05,26,16,34,12.90
2018,05,26,16,35,14.50
2018,05,26,16,36,12.90
2018,05,26,16,37,14.50
2018,05,26,16,38,14.50
2018,05,26,16,39,14.50
2018,05,26,16,40,12.90
2018,05,26,16,41,14.50
2018,05,26,16,42,14.50
2018,05,26,16,43,14.50
2018,05,26,16,44,14.50
2018,05,26,16,45,16.10
2018,05,26,16,46,14.50
2018,05,26,16,47,11.30
2018,05,26,16,48,14.50
2018,05,26,16,49,14.50
2018,05,26,16,50,12.90
2018,05,26,16,51,12.90
2018,05,26,16,52,11.30
2018,05,26,16,53,11.30
2018,05,26,16,54,11.30
2018,05,26,16,55,12.90
2018,05,26,16,56,12.90
2018,05,26,16,57,12.90
2018,05,26,16,58,11.30
2018,05,26,16,59,11.30
2018,05,26,17,00,11.30
2018,05,26,17,01,11.30
2018,05,26,17,02,12.90
2018,05,26,17,03,11.30
2018,05,26,17,04,11.30
2018,05,26,17,05,11.30
2018,05,26,17,06,11.30
2018,05,26,17,07,11.30
2018,05,26,17,08,12.90
2018,05,26,17,09,11.30
2018,05,26,17,10,11.30
2018,05,26,17,11,11.30
2018,05,26,17,12,9.60
2018,05,26,17,13,11.30
2018,05,26,17,14,12.90
2018,05,26,17,15,11.30
2018,05,26,17,16,14.50
2018,05,26,17,17,11.30
2018,05,26,17,18,11.30
2018,05,26,17,19,12.90
2018,05,26,17,20,11.30
2018,05,26,17,21,12.90
2018,05,26,17,22,12.90
2018,05,26,17,23,11.30
2018,05,26,17,24,11.30
2018,05,26,17,25,11.30
2018,05,26,17,26,12.90
2018,05,26,17,27,11.30
2018,05,26,17,28,11.30
2018,05,26,17,29,11.30
2018,05,26,17,30,9.60
2018,05,26,17,31,9.60
2018,05,26,17,32,11.30
2018,05,26,17,33,9.60
2018,05,26,17,34,11.30
2018,05,26,17,35,11.30
2018,05,26,17,36,9.60
2018,05,26,17,37,9.60
2018,05,26,17,38,11.30
2018,05,26,17,39,11.30
2018,05,26,17,40,11.30
2018,05,26,17,41,11.30
2018,05,26,17,42,11.30
2018,05,26,17,43,11.30
2018,05,26,17,44,9.60
2018,05,26,17,45,11.30
2018,05,26,17,46,11.30
2018,05,26,17,47,11.30
2018,05,26,17,48,11.30
2018,05,26,17,49,12.90
2018,05,26,17,50,11.30
2018,05,26,17,51,8.10
2018,05,26,17,52,11.30
2018,05,26,17,53,11.30
2018,05,26,17,54,11.30
2018,05,26,17,55,9.60
2018,05,26,17,56,8.10
2018,05,26,17,57,11.30
2018,05,26,17,58,9.60
2018,05,26,17,59,9.60
2018,05,26,18,00,9.60
2018,05,26,18,01,9.60
2018,05,26,18,02,8.10
2018,05,26,18,03,11.30
2018,05,26,18,04,9.60
2018,05,26,18,05,9.60
2018,05,26,18,06,9.60
2018,05,26,18,07,6.40
2018,05,26,18,08,6.40
2018,05,26,18,09,9.60
2018,05,26,18,10,11.30
2018,05,26,18,11,11.30
2018,05,26,18,12,11.30
2018,05,26,18,13,9.60
2018,05,26,18,14,12.90
2018,05,26,18,15,6.40
2018,05,26,18,16,9.60
2018,05,26,18,17,8.10
2018,05,26,18,18,6.40
2018,05,26,18,19,11.30
2018,05,26,18,20,9.60
2018,05,26,18,21,9.60
2018,05,26,18,22,8.10
2018,05,26,18,23,8.10
2018,05,26,18,24,9.60
2018,05,26,18,25,9.60
2018,05,26,18,26,8.10
2018,05,26,18,27,6.40
2018,05,26,18,28,6.40
2018,05,26,18,29,6.40
2018,05,26,18,30,4.80
2018,05,26,18,31,6.40
2018,05,26,18,32,6.40
2018,05,26,18,33,6.40
2018,05,26,18,34,4.80
2018,05,26,18,35,6.40
2018,05,26,18,36,6.40
2018,05,26,18,37,11.30
2018,05,26,18,38,11.30
2018,05,26,18,39,9.60
2018,05,26,18,40,6.40
2018,05,26,18,41,6.40
2018,05,26,18,42,6.40
2018,05,26,18,43,4.80
2018,05,26,18,44,3.20
2018,05,26,18,45,4.80
2018,05,26,18,46,4.80
2018,05,26,18,47,4.80
2018,05,26,18,48,3.20
2018,05,26,18,49,3.20
2018,05,26,18,50,3.20
2018,05,26,18,51,4.80
2018,05,26,18,52,4.80
2018,05,26,18,53,4.80
2018,05,26,18,54,3.20
2018,05,26,18,55,1.60
2018,05,26,18,56,1.60
2018,05,26,18,57,1.60
2018,05,26,18,58,1.60
2018,05,26,18,59,1.60
2018,05,26,19,00,3.20
2018,05,26,19,01,1.60
2018,05,26,19,02,3.20
2018,05,26,19,03,1.60
2018,05,26,19,04,3.20
2018,05,26,19,05,1.60
2018,05,26,19,06,1.60
2018,05,26,19,09,3.20
2018,05,26,19,10,1.60
2018,05,26,19,11,3.20
2018,05,26,19,12,1.60
2018,05,26,19,13,1.60
2018,05,26,19,14,1.60
2018,05,26,19,16,1.60
2018,05,26,19,18,1.60
2018,05,26,19,19,1.60
2018,05,26,19,20,1.60
2018,05,26,19,21,1.60
2018,05,26,19,22,1.60
2018,05,26,19,23,4.80
2018,05,26,19,24,1.60
2018,05,26,19,25,1.60
2018,05,26,19,28,1.60
2018,05,26,19,42,1.60
2018,05,26,19,43,1.60
2018,05,26,19,44,1.60
2018,05,26,19,46,1.60
2018,05,26,19,50,3.20
2018,05,26,19,51,1.60
2018,05,26,19,54,3.20
2018,05,26,19,55,3.20
2018,05,26,19,56,1.60
2018,05,26,19,58,1.60
2018,05,26,19,59,4.80
2018,05,26,20,02,8.10
2018,05,26,20,03,3.20
2018,05,26,20,04,3.20
2018,05,26,20,05,1.60
2018,05,26,20,06,1.60
2018,05,26,20,07,1.60
2018,05,26,20,08,3.20
2018,05,26,20,09,3.20
2018,05,26,20,10,3.20
2018,05,26,20,11,4.80
2018,05,26,20,12,4.80
2018,05,26,20,13,1.60
2018,05,26,20,14,1.60
2018,05,26,20,15,1.60
2018,05,26,20,16,1.60
2018,05,26,20,17,3.20
2018,05,26,20,18,1.60
2018,05,26,20,19,3.20
2018,05,26,20,20,3.20
2018,05,26,20,21,4.80
2018,05,26,20,24,3.20
2018,05,26,20,25,4.80
2018,05,26,20,26,4.80
2018,05,26,20,27,1.60
2018,05,26,20,28,3.20
2018,05,26,20,29,3.20
2018,05,26,20,30,3.20
2018,05,26,20,31,3.20
2018,05,26,20,32,1.60
2018,05,26,20,33,3.20
2018,05,26,20,34,1.60
2018,05,26,20,37,1.60
2018,05,26,20,38,1.60
2018,05,26,20,39,1.60
2018,05,26,20,40,1.60
2018,05,26,20,42,1.60
2018,05,26,20,43,1.60
2018,05,26,20,44,1.60
2018,05,26,20,45,1.60
2018,05,26,20,47,1.60
2018,05,26,20,48,3.20
2018,05,26,20,49,3.20
2018,05,26,20,50,1.60
2018,05,26,20,51,1.60
2018,05,26,20,52,1.60
2018,05,26,20,53,1.60
2018,05,26,20,55,1.60
2018,05,26,20,56,1.60
2018,05,26,20,57,4.80
2018,05,26,20,58,3.20
2018,05,26,20,59,1.60
2018,05,26,21,00,1.60
2018,05,26,21,01,1.60
2018,05,26,21,02,1.60
2018,05,26,21,03,1.60
2018,05,26,21,04,1.60
2018,05,26,21,05,3.20
2018,05,26,21,06,3.20
2018,05,26,21,07,3.20
2018,05,26,21,08,1.60
2018,05,26,21,09,3.20
2018,05,26,21,10,3.20
2018,05,26,21,11,1.60
2018,05,26,21,12,3.20
2018,05,26,21,13,3.20
2018,05,26,21,14,1.60
2018,05,26,21,15,3.20
2018,05,26,21,16,1.60
2018,05,26,21,17,1.60
2018,05,26,21,18,1.60
2018,05,26,21,20,1.60
2018,05,26,21,21,3.20
2018,05,26,21,22,1.60
2018,05,26,21,26,1.60
2018,05,26,21,27,1.60
2018,05,26,21,28,4.80
2018,05,26,21,29,1.60
2018,05,26,21,30,1.60
2018,05,26,21,31,1.60
2018,05,26,21,32,1.60
2018,05,26,21,33,1.60
2018,05,26,21,35,1.60
2018,05,26,21,36,1.60
2018,05,26,21,37,1.60
2018,05,26,21,39,3.20
2018,05,26,21,40,1.60
2018,05,26,21,41,1.60
2018,05,26,21,42,1.60
2018,05,26,21,44,1.60
2018,05,26,21,46,1.60
2018,05,26,21,48,1.60
2018,05,26,21,49,1.60
2018,05,26,21,50,1.60
2018,05,26,21,51,1.60
2018,05,26,21,52,1.60
2018,05,26,21,54,1.60
2018,05,26,21,55,1.60
2018,05,26,21,56,1.60
2018,05,26,21,57,1.60
2018,05,26,21,59,3.20
2018,05,26,22,00,4.80
2018,05,26,22,01,4.80
2018,05,26,22,02,1.60
2018,05,26,22,03,1.60
2018,05,26,22,05,1.60
2018,05,26,22,06,1.60
2018,05,26,22,08,1.60
2018,05,26,22,09,1.60
2018,05,26,22,11,1.60
2018,05,26,22,13,1.60
2018,05,26,22,17,1.60
2018,05,26,22,19,1.60
2018,05,26,22,20,1.60
2018,05,26,22,21,1.60
2018,05,26,22,25,1.60
2018,05,26,22,39,3.20
2018,05,26,22,40,1.60
2018,05,26,22,41,3.20
2018,05,26,22,42,1.60
2018,05,26,22,43,1.60
2018,05,26,22,44,1.60
2018,05,26,22,45,1.60
2018,05,26,22,46,1.60
2018,05,26,22,50,1.60
2018,05,26,22,51,1.60
2018,05,26,22,52,1.60
2018,05,26,22,53,1.60
2018,05,26,22,54,3.20
2018,05,26,22,56,3.20
2018,05,26,22,57,1.60
2018,05,26,23,01,1.60
2018,05,26,23,02,1.60
2018,05,26,23,03,1.60
2018,05,26,23,04,1.60
2018,05,26,23,05,1.60
2018,05,26,23,09,1.60
2018,05,26,23,10,1.60
2018,05,26,23,13,1.60
2018,05,26,23,14,1.60
2018,05,26,23,17,1.60
2018,05,26,23,19,1.60
2018,05,26,23,20,1.60
2018,05,26,23,31,1.60
2018,05,26,23,32,1.60
2018,05,26,23,33,1.60
2018,05,26,23,34,1.60
2018,05,26,23,35,1.60
2018,05,26,23,37,1.60
2018,05,26,23,39,1.60
2018,05,26,23,40,1.60
2018,05,26,23,41,1.60
2018,05,26,23,51,1.60
2018,05,26,23,56,1.60
2018,05,26,23,58,1.60
